Simultaneous Nadir Overpasses (SNOs) Predictions

Prediction of SNOs between TERRA and METOP-C Satellite Orbit:

Table of predicted SNOs for the next 14.0 days since TLE Epoch: 4/13/2019
Index Date (TERRA) Time (TERRA) Lat,Lon (TERRA) SZA (TERRA ) Date (METOP-C) Time (METOP-C) Lat,Lon (METOP-C) SZA (METOP-C ) Distance(km) Time Diff (sec)
1 04/13/2019 21:43:22 81.28, -98.98 74.87 04/13/2019 21:42:27 81.29, -98.87 74.86 2.09 55
2 04/13/2019 22:32:48 -81.29, 68.92 105.11 04/13/2019 22:33:06 -81.29, 68.92 105.10 0.09 18
3 04/16/2019 17:17:38 81.29, -32.44 73.91 04/16/2019 17:16:51 81.29, -32.47 73.88 0.59 47
4 04/16/2019 18:07:04 -81.30, 135.50 106.07 04/16/2019 18:07:30 -81.29, 135.37 106.07 2.37 26
5 04/19/2019 12:51:55 81.29, 34.00 72.95 04/19/2019 12:51:15 81.29, 33.92 72.92 1.37 40
6 04/19/2019 13:41:21 -81.30,-158.03 107.02 04/19/2019 13:41:54 -81.29,-158.18 107.03 2.79 33
7 04/22/2019 08:26:12 81.28, 100.34 71.99 04/22/2019 08:25:38 81.29, 100.32 71.98 0.68 34
8 04/22/2019 09:15:38 -81.30, -91.66 107.97 04/22/2019 09:16:17 -81.30, -91.72 107.96 1.33 39
9 04/25/2019 04:00:30 81.29, 166.95 71.11 04/25/2019 04:00:01 81.29, 167.10 71.11 2.49 29




NCC Satellite Simultaneous Nadir Overpasses (SNOs) Prediction Service
